Regional Weather Roundup
Issued by NWS

Home | Current Version | Previous Version | Graphics & Text | Print | Product List | Glossary On
Versions: 1 2 3 4 5 6 7 8 9 10 11 12 13 14 15 16 17 18 19 20 21 22 23 24 25 26 27 28 29 30 31 32 33 34 35 36 37 38 39 40 41 42 43 44 45 46 47 48 49 50
240
ASUS43 KLOT 151003
RWRIL

ILLINOIS REGIONAL WEATHER ROUNDUP
NATIONAL WEATHER SERVICE CHICAGO/ROMEOVILLE IL
400 AM CST FRI DEC 15 2017

NOTE: "FAIR" INDICATES FEW OR NO CLOUDS BELOW 12,000 FEET WITH NO
SIGNIFICANT WEATHER AND/OR OBSTRUCTIONS TO VISIBILITY.

* THESE STATIONS ARE NOT UNDER NWS QUALITY CONTROL. THEY ALSO MAY NOT
  REPORT WEATHER SUCH AS PRECIPITATION OR FOG.

ILZ001-002-007-009-015-016-024-151100-
NORTHWEST ILLINOIS

CITY           SKY/WX    TMP DP  RH WIND       PRES   REMARKS
MOLINE         CLOUDY    29  21  72 W14       29.99F WCI  18
STERLING*      CLOUDY    27  20  75 W14       29.96F WCI  16
SAVANNA*       CLOUDY    27  19  72 W12       29.96F WCI  17
$$

ILZ003-004-008-010-011-017-018-151100-
NORTH CENTRAL ILLINOIS

CITY           SKY/WX    TMP DP  RH WIND       PRES   REMARKS
ROCKFORD       FLURRIES  25  16  68 NW14G24   29.95F WCI  13
FREEPORT*      CLOUDY    24  18  75 W13G20    29.94F WCI  13
ROCHELLE*      CLOUDY    25  19  78 W12       29.95F WCI  14
DE KALB*       CLOUDY    25  19  77 W12       29.93F WCI  14
PERU*          CLOUDY    25  17  72 SW10      29.99F WCI  15
$$

ILZ005-006-012>014-019>023-151100-
NORTHEAST ILLINOIS

CITY           SKY/WX    TMP DP  RH WIND       PRES   REMARKS
CHICAGO-OHARE  CLOUDY    25  16  68 SW12      29.92F WCI  14
CHICAGO-MIDWAY FLURRIES  24  15  68 SW12      29.95F WCI  13
AURORA         CLOUDY    24  18  77 SW13      29.94F WCI  12
LANSING*       CLOUDY    22  16  78 SW9       29.97F WCI  12
JOLIET*        CLOUDY    25  18  73 SW5       29.97F WCI  19
WAUKEGAN       CLOUDY    24  17  74 SW8       29.89F WCI  15
DUPAGE AIRPORT CLOUDY    23  18  81 SW10      29.93S WCI  12
KANKAKEE*      CLOUDY    22  13  70 SW8       30.00F WCI  12
WHEELING       CLOUDY    25  17  72 SW10      29.94F WCI  15
MORRIS*        CLOUDY    25  17  74 SW9       29.96F WCI  15
ROMEOVILLE*    CLOUDY    24  17  75 SW14      29.96F WCI  11
NORTHERLY ISL    N/A     24  14  65 W8          N/A  WCI  15
$$

LMZ740>746-151100-
SOUTHERN LAKE MICHIGAN

STATION/POSITION SKY/WX   TEMP    WIND        PRES    VSBY  WAVE
                          AIR SEA DIR/SP/G                  HT/PER
                          (F)     (DEG/KT/KT) (MB)    (MI)  (FT/S)
HARRISON CRIB              25     230/ 15/ 17   N/A
BURNHAM HARBOR             24     210/  6/ 10   N/A
CALUMET HARBOR             24     200/  9/ 13 1013.8F
BURNS HARBOR               22     200/ 12/ 14 1014.9F
MICHIGAN CITY              21     180/ 11/ 12   N/A
$$

ILZ025>027-034>036-040-047-049-050-058-095>099-151100-
WEST-CENTRAL ILLINOIS

CITY           SKY/WX    TMP DP  RH WIND       PRES   REMARKS
QUINCY         CLOUDY    29  21  72 SW8       30.05S WCI  21
GALESBURG*     CLOUDY    28  22  76 W9        30.03S WCI  20
MACOMB*        CLOUDY    29  21  74 W10       30.05S WCI  19
JACKSONVILLE*  CLOUDY    26  19  73 SW6       30.06F WCI  19
PITTSFIELD*    CLOUDY    29  22  75 SW6       30.06F WCI  23
$$

ILZ028>032-037-038-041>044-048-051>054-059>061-151100-
CENTRAL ILLINOIS

CITY           SKY/WX    TMP DP  RH WIND       PRES   REMARKS
PONTIAC        CLOUDY    26  19  76 SW12      30.00F WCI  15
BLOOMINGTON    CLOUDY    23  19  85 SW9       30.00F WCI  13
DECATUR        CLOUDY    25  18  74 W7        30.05S WCI  17
PEORIA         CLOUDY    27  19  72 SW7       30.02F WCI  19
LACON*         CLOUDY    26  18  71 SW8       30.00F WCI  18
LINCOLN*       CLOUDY    26  21  79 SW3       30.04F
SPRINGFIELD    PTCLDY    25  18  74 SW5       30.06F WCI  19
TAYLORVILLE    CLOUDY    27  19  72 SW7       30.06F WCI  19
$$

ILZ033-039-045-046-055>057-062-063-151100-
EAST-CENTRAL ILLINOIS

CITY           SKY/WX    TMP DP  RH WIND       PRES   REMARKS
CHAMPAIGN      CLOUDY    22  17  81 SW8       30.03F WCI  12
DANVILLE*      CLOUDY    21  17  83 SW5       30.00S WCI  15
RANTOUL*       CLOUDY    25  20  82 SW6       30.01F WCI  18
MATTOON        CLOUDY    25  19  78 W6        30.04F WCI  18
PARIS*         CLOUDY    25  19  78 W7        30.05F WCI  18
$$

ILZ079-100>102-151100-
SOUTHWEST ILLINOIS

CITY           SKY/WX    TMP DP  RH WIND       PRES   REMARKS
ALTON          CLOUDY    29  22  75 W5        30.09F WCI  24
BELLEVILLE     CLOUDY    30  20  65 SW6       30.10S WCI  24
CAHOKIA*       CLOUDY    30  20  66 W5        30.11F WCI  25
SPARTA*        CLOUDY    29  23  76 W5        30.13S WCI  24
$$

ILZ064>066-069>071-074>076-080>082-084>086-088>090-092>094-151100-
SOUTH-CENTRAL ILLINOIS

CITY           SKY/WX    TMP DP  RH WIND       PRES   REMARKS
CARBONDALE     CLOUDY    30  21  69 N6        30.12S WCI  24
CAIRO*         CLOUDY    31  24  74 W6        30.13S WCI  25
EFFINGHAM*     CLOUDY    28  20  72 W8        30.09F WCI  20
MARION         CLOUDY    32  21  65 W3        30.12S
MT. VERNON     CLOUDY    29  21  72 W6        30.11S WCI  23
CENTRALIA*     CLOUDY    30  21  69 W6        30.09F WCI  24
SALEM*         CLOUDY    30  19  63 W6        30.09F WCI  24
METROPOLIS*    CLOUDY    32  22  67 W5        30.13S WCI  27
$$

ILZ067-068-072-073-078-083-087-091-151100-
SOUTHEAST ILLINOIS

CITY           SKY/WX    TMP DP  RH WIND       PRES   REMARKS
LAWRENCEVILLE  CLOUDY    30  20  66 W7        30.09S WCI  23
FLORA*         CLOUDY    31  21  67 W9        30.10S WCI  23
FAIRFIELD*     CLOUDY    30  20  67 CALM      30.09F
HARRISBURG*    CLOUDY    30  22  72 W5        30.12S WCI  25
ROBINSON*      CLOUDY    28  20  74 W8        30.09S WCI  19
CARMI*         CLOUDY    30  23  74 W8        30.10S WCI  22
$$

ABBREVIATIONS USED IN REMARKS
   TC - TEMPERATURE IN CELSIUS
  WCI - WIND CHILL INDEX
   HX - HEAT INDEX
  VSB - VISIBILITY
$$





USA.gov is the U.S. government's official web portal to all federal, state and local government web resources and services.